Block Island, RI

4:57 PM EDT on March 27, 2017 (GMT -0400)
Block Island State

Weather History for KBID - January, 2013

Change the Weather History Date:

Wednesday, January 23, 2013

  Actual Average Record
Temperature  
Mean Temperature 14 °F -  
Max Temperature 17 °F 40 °F 54 °F (1974)
Min Temperature 12 °F 26 °F 0 °F (1976)
Degree Days  
Heating Degree Days 50    
Moisture  
Dew Point -4 °F    
Average Humidity 44    
Maximum Humidity 53    
Minimum Humidity 35    
Precipitation  
Precipitation 0.00 in - - ()
Sea Level Pressure  
Sea Level Pressure 30.12 in    
Wind  
Wind Speed 13 mph (NW)    
Max Wind Speed 20 mph    
Max Gust Speed 32 mph    
Visibility 10 miles    
Events      
Averages and records for this station are not official NWS values.
T = Trace of Precipitation, MM = Missing Value Source: NWS Daily Summary

Daily Weather History Graph

Daily Weather History Graph

Search for Another Location

Airport or City:

Trip Planner

Search our weather history database for the weather conditions in past years. The results will help you decide how hot, cold, wet, or windy it might be!

Date:

Astronomy

Jan. 23, 2013 Rise Set
Actual Time 7:04 AM EST 4:52 PM EST
Civil Twilight 6:34 AM EST 5:21 PM EST
Nautical Twilight 6:01 AM EST 5:55 PM EST
Astronomical Twilight 5:28 AM EST 6:28 PM EST
Moon 1:59 PM EST (1/23) 4:14 AM EST (1/23)
Length of Visible Light 10h 46m
Length of Day
9h 47m
Waxing Gibbous, 89% of the Moon is Illuminated
Jan 23
Waxing Gibbous
Jan 26
Full
Feb 3
Last Quarter
Feb 10
New
Feb 17
First Quarter

Hourly Weather History & Observations

Time (EST) Temp. Windchill Dew Point Humidity Pressure Visibility Wind Dir Wind Speed Gust Speed Precip Events Conditions
12:15 AM 17.6 °F 4.3 °F -2.2 °F 42% 30.07 in 10.0 mi NW 12.7 mph 20.7 mph N/A   Overcast
12:35 AM 17.6 °F 3.2 °F -2.2 °F 42% 30.07 in 10.0 mi WNW 15.0 mph 19.6 mph N/A   Overcast
12:55 AM 15.8 °F 2.7 °F -4.0 °F 41% 30.07 in 10.0 mi NW 11.5 mph 21.9 mph N/A   Overcast
1:15 AM 15.8 °F 2.7 °F -4.0 °F 41% 30.08 in 10.0 mi NW 11.5 mph 19.6 mph N/A   Overcast
1:55 AM 15.8 °F 0.9 °F -7.6 °F 35% 30.10 in 10.0 mi NW 15.0 mph 21.9 mph N/A   Overcast
2:15 AM 15.8 °F 2.7 °F -5.8 °F 38% 30.11 in 10.0 mi NW 11.5 mph 20.7 mph N/A   Mostly Cloudy
2:35 AM 14.0 °F -1.4 °F -5.8 °F 41% 30.11 in 10.0 mi NW 15.0 mph 20.7 mph N/A   Scattered Clouds
2:55 AM 14.0 °F -0.2 °F -5.8 °F 41% 30.11 in 10.0 mi NW 12.7 mph 21.9 mph N/A   Partly Cloudy
3:15 AM 14.0 °F 1.2 °F -5.8 °F 41% 30.10 in 10.0 mi NNW 10.4 mph 27.6 mph N/A   Clear
3:35 AM 12.2 °F -3.1 °F -5.8 °F 45% 30.11 in 10.0 mi NW 13.8 mph 21.9 mph N/A   Clear
3:55 AM 12.2 °F -1.0 °F -5.8 °F 45% 30.11 in 10.0 mi NW 10.4 mph 25.3 mph N/A   Clear
4:15 AM 12.2 °F -3.7 °F -4.0 °F 48% 30.11 in 10.0 mi NW 15.0 mph 21.9 mph N/A   Clear
4:35 AM 12.2 °F -2.5 °F -5.8 °F 45% 30.12 in 10.0 mi NW 12.7 mph 24.2 mph N/A   Partly Cloudy
4:55 AM 12.2 °F -3.1 °F -5.8 °F 45% 30.12 in 10.0 mi NW 13.8 mph 24.2 mph N/A   Partly Cloudy
5:15 AM 12.2 °F -3.1 °F -5.8 °F 45% 30.13 in 10.0 mi NNW 13.8 mph 20.7 mph N/A   Partly Cloudy
5:35 AM 12.2 °F -1.8 °F -5.8 °F 45% 30.13 in 10.0 mi NW 11.5 mph 20.7 mph N/A   Clear
5:55 AM 12.2 °F -1.8 °F -5.8 °F 45% 30.14 in 10.0 mi NNW 11.5 mph 18.4 mph N/A   Clear
6:15 AM 12.2 °F -2.5 °F -5.8 °F 45% 30.14 in 10.0 mi NW 12.7 mph 18.4 mph N/A   Clear
7:15 AM 12.2 °F -2.5 °F -4.0 °F 48% 30.15 in 10.0 mi NW 12.7 mph 21.9 mph N/A   Partly Cloudy
7:35 AM 12.2 °F -3.7 °F -2.2 °F 53% 30.15 in 10.0 mi NW 15.0 mph 19.6 mph N/A   Partly Cloudy
7:55 AM 12.2 °F 0.7 °F -2.2 °F 53% 30.15 in 10.0 mi NW 8.1 mph 18.4 mph N/A   Mostly Cloudy
8:15 AM 12.2 °F -1.8 °F -2.2 °F 53% 30.16 in 10.0 mi WNW 11.5 mph 17.3 mph N/A   Mostly Cloudy
8:35 AM 12.2 °F -1.8 °F -2.2 °F 53% 30.16 in 10.0 mi NW 11.5 mph 21.9 mph N/A   Mostly Cloudy
8:55 AM 14.0 °F 0.5 °F -0.4 °F 53% 30.16 in 10.0 mi WNW 11.5 mph 20.7 mph N/A   Mostly Cloudy
9:15 AM 14.0 °F 1.2 °F -0.4 °F 53% 30.16 in 10.0 mi NW 10.4 mph 23.0 mph N/A   Mostly Cloudy
9:35 AM 15.8 °F 3.4 °F -0.4 °F 49% 30.17 in 10.0 mi NW 10.4 mph 20.7 mph N/A   Mostly Cloudy
9:55 AM 15.8 °F 2.7 °F -2.2 °F 45% 30.17 in 10.0 mi NW 11.5 mph 21.9 mph N/A   Mostly Cloudy
10:15 AM 15.8 °F 2.1 °F -2.2 °F 45% 30.17 in 10.0 mi WNW 12.7 mph 20.7 mph N/A   Scattered Clouds
10:35 AM 15.8 °F 0.9 °F -4.0 °F 41% 30.17 in 10.0 mi WNW 15.0 mph 21.9 mph N/A   Partly Cloudy
10:55 AM 15.8 °F 3.4 °F -2.2 °F 45% 30.16 in 10.0 mi WNW 10.4 mph 23.0 mph N/A   Scattered Clouds
11:15 AM 15.8 °F 2.7 °F -4.0 °F 41% 30.15 in 10.0 mi NW 11.5 mph 21.9 mph N/A   Partly Cloudy
11:35 AM 15.8 °F 3.4 °F -0.4 °F 49% 30.14 in 10.0 mi WNW 10.4 mph 18.4 mph N/A   Scattered Clouds
11:55 AM 17.6 °F 2.2 °F -2.2 °F 42% 30.12 in 10.0 mi WNW 17.3 mph 24.2 mph N/A   Scattered Clouds
12:15 PM 17.6 °F 3.7 °F -2.2 °F 42% 30.11 in 10.0 mi WNW 13.8 mph 24.2 mph N/A   Scattered Clouds
12:35 PM 17.6 °F 4.3 °F -2.2 °F 42% 30.10 in 10.0 mi NW 12.7 mph 21.9 mph N/A   Mostly Cloudy
12:55 PM 17.6 °F 3.7 °F -2.2 °F 42% 30.10 in 10.0 mi WNW 13.8 mph 19.6 mph N/A   Mostly Cloudy
1:15 PM 17.6 °F 4.3 °F -2.2 °F 42% 30.09 in 10.0 mi NW 12.7 mph 19.6 mph N/A   Overcast
1:35 PM 17.6 °F 6.4 °F -2.2 °F 42% 30.09 in 10.0 mi WNW 9.2 mph 19.6 mph N/A   Overcast
1:55 PM 15.8 °F 2.1 °F -4.0 °F 41% 30.09 in 10.0 mi NW 12.7 mph 20.7 mph N/A   Overcast
2:15 PM 15.8 °F 1.4 °F -2.2 °F 45% 30.09 in 10.0 mi NW 13.8 mph 21.9 mph N/A   Mostly Cloudy
2:35 PM 15.8 °F 2.7 °F -5.8 °F 38% 30.09 in 10.0 mi WNW 11.5 mph 19.6 mph N/A   Mostly Cloudy
2:55 PM 15.8 °F 4.2 °F -2.2 °F 45% 30.09 in 10.0 mi NW 9.2 mph 21.9 mph N/A   Mostly Cloudy
3:15 PM 17.6 °F 5.7 °F -2.2 °F 42% 30.10 in 10.0 mi WNW 10.4 mph 19.6 mph N/A   Mostly Cloudy
3:35 PM 17.6 °F 6.4 °F -4.0 °F 38% 30.09 in 10.0 mi WNW 9.2 mph 18.4 mph N/A   Overcast
3:55 PM 17.6 °F 3.7 °F -2.2 °F 42% 30.09 in 10.0 mi WNW 13.8 mph 20.7 mph N/A   Overcast
4:15 PM 15.8 °F 3.4 °F -5.8 °F 38% 30.09 in 10.0 mi NW 10.4 mph 21.9 mph N/A   Mostly Cloudy
4:35 PM 17.6 °F 5.7 °F -2.2 °F 42% 30.09 in 10.0 mi WNW 10.4 mph 17.3 mph N/A   Mostly Cloudy
4:55 PM 17.6 °F 7.3 °F -4.0 °F 38% 30.10 in 10.0 mi NW 8.1 mph - N/A   Overcast
5:15 PM 15.8 °F 3.4 °F -4.0 °F 41% 30.10 in 10.0 mi NW 10.4 mph 18.4 mph N/A   Overcast
5:35 PM 17.6 °F 6.4 °F -2.2 °F 42% 30.11 in 10.0 mi NW 9.2 mph 18.4 mph N/A   Overcast
5:55 PM 15.8 °F 4.2 °F -4.0 °F 41% 30.11 in 10.0 mi NNW 9.2 mph - N/A   Overcast
6:15 PM 15.8 °F 3.4 °F -2.2 °F 45% 30.12 in 10.0 mi NW 10.4 mph 16.1 mph N/A   Overcast
6:35 PM 15.8 °F 1.4 °F -4.0 °F 41% 30.12 in 10.0 mi NNW 13.8 mph 20.7 mph N/A   Scattered Clouds
6:55 PM 15.8 °F 3.4 °F -4.0 °F 41% 30.13 in 10.0 mi NW 10.4 mph 21.9 mph N/A   Partly Cloudy
7:15 PM 15.8 °F 1.4 °F -2.2 °F 45% 30.13 in 10.0 mi NW 13.8 mph 19.6 mph N/A   Scattered Clouds
7:35 PM 15.8 °F 1.4 °F -2.2 °F 45% 30.13 in 10.0 mi NW 13.8 mph 26.5 mph N/A   Partly Cloudy
7:55 PM 15.8 °F 1.4 °F -4.0 °F 41% 30.13 in 10.0 mi NW 13.8 mph 23.0 mph N/A   Partly Cloudy
8:15 PM 15.8 °F 2.1 °F -2.2 °F 45% 30.13 in 10.0 mi NW 12.7 mph 25.3 mph N/A   Clear
8:35 PM 15.8 °F 2.1 °F -2.2 °F 45% 30.13 in 10.0 mi NW 12.7 mph 26.5 mph N/A   Clear
8:55 PM 15.8 °F -1.1 °F -4.0 °F 41% 30.14 in 10.0 mi NW 19.6 mph 32.2 mph N/A   Partly Cloudy
9:15 PM 15.8 °F 0.3 °F -5.8 °F 38% 30.14 in 10.0 mi NW 16.1 mph 28.8 mph N/A   Clear
9:35 PM 15.8 °F -0.2 °F -5.8 °F 38% 30.14 in 10.0 mi NW 17.3 mph 29.9 mph N/A   Clear
9:55 PM 15.8 °F -1.1 °F -5.8 °F 38% 30.14 in 10.0 mi NNW 19.6 mph 31.1 mph N/A   Clear
10:15 PM 15.8 °F 1.4 °F -7.6 °F 35% 30.14 in 10.0 mi NW 13.8 mph 26.5 mph N/A   Clear
10:35 PM 14.0 °F 0.5 °F -5.8 °F 41% 30.14 in 10.0 mi NNW 11.5 mph 20.7 mph N/A   Clear
11:15 PM 12.2 °F -1.8 °F -2.2 °F 53% 30.14 in 10.0 mi NNW 11.5 mph 19.6 mph N/A   Clear
11:35 PM 12.2 °F -3.7 °F -2.2 °F 53% 30.14 in 10.0 mi NW 15.0 mph 19.6 mph N/A   Clear
11:55 PM 12.2 °F -2.5 °F -2.2 °F 53% 30.14 in 10.0 mi NW 12.7 mph 17.3 mph N/A   Clear